This is the latest recevied weather packets stored in our database for station/object K3SV. If no packets are shown the sender has not sent any weather packets the latest 10 day(s).
| Time | Temp. | Humidity | Pressure | Rain* | Wind** | Luminosity | Snow |
|---|---|---|---|---|---|---|---|
| 1777646661 | 28.33° C | 70% | 1012.8 hPa | 0 mm | - | 523 W/m² | - |
| 1777646356 | 28.33° C | 72% | 1013.1 hPa | 0 mm | - | 517 W/m² | - |
| 1777646052 | 28.89° C | 71% | 1013 hPa | 0 mm | - | 484 W/m² | - |
| 1777645750 | 28.33° C | 72% | 1012.6 hPa | 0 mm | - | 485 W/m² | - |
| 1777645447 | 28.33° C | 73% | 1012.8 hPa | 0 mm | - | 489 W/m² | - |
| 1777645142 | 27.78° C | 74% | 1012.8 hPa | 0 mm | - | 450 W/m² | - |
| 1777644839 | 27.78° C | 73% | 1012.9 hPa | 0 mm | - | 423 W/m² | - |
| 1777644537 | 27.22° C | 78% | 1012.7 hPa | 0 mm | - | 421 W/m² | - |
| 1777644227 | 27.22° C | 78% | 1012.6 hPa | 0 mm | - | 406 W/m² | - |
| 1777643924 | 27.22° C | 77% | 1012.6 hPa | 0 mm | - | 392 W/m² | - |
| 1777643622 | 26.67° C | 79% | 1012.8 hPa | 0 mm | - | 388 W/m² | - |
| 1777643319 | 26.67° C | 81% | 1012.7 hPa | 0 mm | - | 369 W/m² | - |
| 1777643015 | 26.67° C | 81% | 1012.8 hPa | 0 mm | - | 362 W/m² | - |
| 1777642711 | 26.67° C | 82% | 1012.5 hPa | 0 mm | - | 330 W/m² | - |
| 1777642409 | 26.67° C | 82% | 1012.7 hPa | 0 mm | - | 317 W/m² | - |
| 1777642105 | 26.11° C | 84% | 1012.9 hPa | 0 mm | - | 299 W/m² | - |
| 1777641801 | 25.56° C | 85% | 1012.5 hPa | 0 mm | - | 285 W/m² | - |
| 1777641496 | 25.56° C | 86% | 1012.9 hPa | 0 mm | - | 268 W/m² | - |
| 1777641191 | 25.56° C | 87% | 1012.8 hPa | 0 mm | - | 255 W/m² | - |
| 1777640888 | 25° C | 89% | 1012.9 hPa | 0 mm | - | 241 W/m² | - |
| 1777640585 | 25° C | 91% | 1012.6 hPa | 0 mm | - | 145 W/m² | - |
| 1777640282 | 24.44° C | 93% | 1012.8 hPa | 0 mm | - | 142 W/m² | - |
| 1777639978 | 24.44° C | 94% | 1012.8 hPa | 0 mm | - | 174 W/m² | - |
| 1777639675 | 23.89° C | 96% | 1012.7 hPa | 0 mm | - | 140 W/m² | - |
| 1777639374 | 23.89° C | 96% | 1012.8 hPa | 0 mm | - | 98 W/m² | - |
* Rain latest hour (hover to see other rain measurements)
** Current wind speed in m/s (hover to see current wind gust speed)